"Pseudo-MPEC" for P10Ol3O

Created 2019 Jun 15 19:09:13 UT using Find_Orb

Click here for an explanation of pseudo-MPECs

 
 Astrometry: 
     P10Ol3O  C2019 05 30T$mW^KAy'7Ic!n(_607deN7f4Astrometry4Br8i*PnKOuR9=G1,F51
     P10Ol3O  C2019 05 30M6qeTw*\hJp,88%*[/ZO4c%+cOIltAGr]`*TmCFLM(5.W#q\bgePF51
     P10Ol3O  C2019 05 30)AT`4N[5aral.5M4/I$fP#i=W.HaO!=P\,QDYredacted;lj_TYfF51
     P10Ol3O  C2019 05 30huOkTpq*s:G*HoERqFI)V-'iSK(-*ouYx@3n7=A,?L.4q:`d!tI\F51
     P10Ol3O |C2019 06 02c-Eck:^$m$laoc)U(Ud=$WxBsSpv5YRv%;gsSl@18(Z!16*@T!2X807
     P10Ol3O |C2019 06 02yU+RK'B_3N`k[,2lDnEYOSJ*S],l!_=([VoyNC_tXk,$iT+53!fL807
     P10Ol3O |C2019 06 02Isc?UA?L#)sS1p9+)^k-NEl=Xn[xt^r]XxlyqVq!OJ3=)Vd6^/)!807
     P10Ol3O |C2019 06 06BQ6tKulbSDT,oLbfNlk;lb3uweV-HW)yn#$CJ@PnN6d!x*)jOD68807
     P10Ol3O |C2019 06 06WeVUQ3SDE-lH1ir,sAZ/_5.iR?CWt.g)9TEmSjy8eieKb,`rkuZ4807
     P10Ol3O |C2019 06 06nfS0/d^,A1:f$G0XG#x6hIRN/$?_^SS%a=4%V,ewZv'(/(+-rMVK807
     P10Ol3O  C2019 06 07!@Ot%hN2miO'H_hh]`U\]]EfCR^pc/r)9lb'ttt=IU@/CbF)dU@GF51
     P10Ol3O  C2019 06 07le35rLclick,[5XN$UyOp#+jfNRf2ARhq+#iW/$mABAFwEVoZ1`:F51
     P10Ol3O  C2019 06 078A/2M*)2.MjqQ79NX_P/^-6SA!muo`OoYavcE.qrRi#i\QHA\1%CF51
     P10Ol3O  C2019 06 08!XW9fVV[i=1,bs$4LG8;)C=$%O)*;@aAZh-jDhereB3;S?X'wFSDF51
     P10Ol3O  C2019 06 08^n'\f_;oforhy*^a%r)3'/OB=oTDl!wk9ELu127T/Z8GAt$+6+:@F51
     P10Ol3O KC2019 06 09'W56![7RPx-c?qDMexplanationZ$f'y*!#5lbO2ia!Yb\p;=!mJ291
     P10Ol3O KC2019 06 09[0CRTp2X\mWfI4U;v+M@l(y.J#[Kp+,[(85y$H5KYVtn1iDdbxq=291

Station data:
(291) LPL/Spacewatch II  (N31.961669 W111.599905)  US/Arizona.  Observers J.
   V. Scotti, R. S. McMillan. 1.8-m f/2.7 reflector + CCD.
(807) Cerro Tololo Observatory, La Serena  (S30.169136 W70.805900)  Chile.
(F51) Pan-STARRS 1, Haleakala  (N20.707235 W156.255910)  US/Hawaii.
   Observers N. Primak, A. Schultz, S. Watters, J. Thiel, T. Goggia. Measurer
   PS1 Science Consortium. 1.8-m Ritchey-Chrétien + CCD.

Orbital elements:  P10Ol3O
   Perihelion 2019 Sep 21.714629 +/- 0.149 TT = 17:09:03 (JD 2458748.214629)
Epoch 2019 Jun  9.0 TT = JDT 2458643.5   Earth MOID: 0.3173   Ma: 0.0409
M 320.39296170 +/- 0.07             (J2000 ecliptic)          AutoNEOCP
n   0.37823787 +/- 0.000486         Peri.   32.41874 +/- 0.049
a   1.89361945 +/- 0.00162          Node   283.70329 +/- 0.027
e   0.3029146 +/- 0.000639          Incl.    9.21714 +/- 0.012
P   2.61/951.76d           H 21.2   G  0.15   U  7.6  
q 1.32001442 +/- 0.000557    Q 2.46722448 +/- 0.00324
From 17 observations 2019 May 30-June 9; mean residual 0".31
Residuals in arcseconds: 
190530 F51  .15+  .06-    190602 807  .49-  .33-    190607 F51  .20-  .11+    
190530 F51  .23+  .39+    190606 807  .12-  .38+    190608 F51  .19-  .52-    
190530 F51  .32+  .10-    190606 807  .38+  .11-    190608 F51  .07-  .48-    
190530 F51  .09-  .17-    190606 807  1.1+  .04-    190609 291  .19-  .25+    
190602 807  .48-  .04+    190607 F51  .08-  .01+    190609 291  .01-  .19+    
190602 807  .29-  .18+    190607 F51  .12+  .14+    

Ephemerides (geocentric):
Date (UTC) HH   RA              Dec         delta   r     elong  mag " sig PA
---- -- -- --  -------------   -----------  ------ ------ -----  --- ---- ---
2019 06 15 19  14 43 15.220   -29 24 48.79  .59675 1.5281 141.4 22.2 1.98  61
2019 06 15 20  14 43 14.414   -29 24 07.85  .59678 1.5280 141.3 22.2 2.00  61
2019 06 15 21  14 43 13.613   -29 23 26.92  .59680 1.5278 141.3 22.2 2.02  61
2019 06 15 22  14 43 12.819   -29 22 45.99  .59682 1.5277 141.3 22.2 2.03  61
2019 06 15 23  14 43 12.031   -29 22 05.06  .59684 1.5275 141.2 22.2 2.05  61
2019 06 16 00  14 43 11.248   -29 21 24.14  .59687 1.5274 141.2 22.2 2.07  61
2019 06 16 01  14 43 10.472   -29 20 43.22  .59689 1.5272 141.1 22.2 2.08  61
2019 06 16 02  14 43 09.702   -29 20 02.31  .59691 1.5271 141.1 22.2 2.10  61
2019 06 16 03  14 43 08.937   -29 19 21.40  .59694 1.5269 141.1 22.2 2.12  61
2019 06 16 04  14 43 08.179   -29 18 40.50  .59696 1.5267 141.0 22.2 2.13  61
2019 06 16 05  14 43 07.427   -29 17 59.61  .59698 1.5266 141.0 22.2 2.15  61
2019 06 16 06  14 43 06.681   -29 17 18.72  .59701 1.5264 140.9 22.2 2.17  61
2019 06 16 07  14 43 05.941   -29 16 37.83  .59703 1.5263 140.9 22.2 2.18  61
2019 06 16 08  14 43 05.207   -29 15 56.95  .59706 1.5261 140.9 22.2 2.20  61
2019 06 16 09  14 43 04.479   -29 15 16.08  .59708 1.5260 140.8 22.2 2.22  61
2019 06 16 10  14 43 03.757   -29 14 35.21  .59711 1.5258 140.8 22.2 2.23  61
2019 06 16 11  14 43 03.041   -29 13 54.34  .59713 1.5257 140.7 22.2 2.25  61
2019 06 16 12  14 43 02.331   -29 13 13.49  .59716 1.5255 140.7 22.2 2.27  61
2019 06 16 13  14 43 01.627   -29 12 32.64  .59718 1.5254 140.7 22.2 2.29  61
2019 06 16 14  14 43 00.929   -29 11 51.79  .59721 1.5252 140.6 22.2 2.30  61
2019 06 16 15  14 43 00.237   -29 11 10.95  .59723 1.5251 140.6 22.2 2.32  61
2019 06 16 16  14 42 59.551   -29 10 30.12  .59726 1.5249 140.5 22.2 2.34  62
2019 06 16 17  14 42 58.871   -29 09 49.29  .59729 1.5248 140.5 22.2 2.36  62
2019 06 16 18  14 42 58.198   -29 09 08.47  .59731 1.5246 140.5 22.2 2.37  62
2019 06 16 19  14 42 57.530   -29 08 27.65  .59734 1.5245 140.4 22.2 2.39  62
2019 06 16 20  14 42 56.869   -29 07 46.85  .59737 1.5243 140.4 22.2 2.41  62
2019 06 16 21  14 42 56.213   -29 07 06.05  .59739 1.5242 140.3 22.2 2.43  62
2019 06 16 22  14 42 55.563   -29 06 25.25  .59742 1.5240 140.3 22.2 2.44  62
2019 06 16 23  14 42 54.920   -29 05 44.46  .59745 1.5239 140.3 22.2 2.46  62
2019 06 17 00  14 42 54.283   -29 05 03.68  .59747 1.5237 140.2 22.2 2.48  62
2019 06 17 01  14 42 53.651   -29 04 22.91  .59750 1.5236 140.2 22.2 2.50  62
2019 06 17 02  14 42 53.026   -29 03 42.14  .59753 1.5234 140.1 22.2 2.52  62
2019 06 17 03  14 42 52.407   -29 03 01.38  .59756 1.5233 140.1 22.2 2.54  62
2019 06 17 04  14 42 51.793   -29 02 20.62  .59759 1.5231 140.1 22.2 2.55  62
2019 06 17 05  14 42 51.186   -29 01 39.88  .59762 1.5230 140.0 22.2 2.57  62
2019 06 17 06  14 42 50.585   -29 00 59.14  .59765 1.5228 140.0 22.2 2.59  62
2019 06 17 07  14 42 49.990   -29 00 18.40  .59767 1.5227 139.9 22.2 2.61  62
2019 06 17 08  14 42 49.401   -28 59 37.68  .59770 1.5225 139.9 22.2 2.63  62
2019 06 17 09  14 42 48.818   -28 58 56.96  .59773 1.5224 139.9 22.2 2.65  62
2019 06 17 10  14 42 48.242   -28 58 16.25  .59776 1.5222 139.8 22.2 2.66  62
2019 06 17 11  14 42 47.671   -28 57 35.55  .59779 1.5221 139.8 22.2 2.68  62
2019 06 17 12  14 42 47.106   -28 56 54.86  .59782 1.5220 139.7 22.2 2.70  62
2019 06 17 13  14 42 46.547   -28 56 14.17  .59785 1.5218 139.7 22.2 2.72  62
2019 06 17 14  14 42 45.995   -28 55 33.49  .59788 1.5217 139.7 22.2 2.74  62
2019 06 17 15  14 42 45.448   -28 54 52.82  .59792 1.5215 139.6 22.2 2.76  62
2019 06 17 16  14 42 44.908   -28 54 12.15  .59795 1.5214 139.6 22.2 2.78  62
2019 06 17 17  14 42 44.373   -28 53 31.50  .59798 1.5212 139.5 22.2 2.80  62
2019 06 17 18  14 42 43.845   -28 52 50.85  .59801 1.5211 139.5 22.2 2.82  63